AirNav   Pilot Hours Calculator
 
 450 users online  

8C4 Mathews Memorial Airport
Tipton, Iowa, USA

GOING TO TIPTON?


FAA INFORMATION EFFECTIVE 12 SEPTEMBER 2019

Location

FAA Identifier: 8C4
Lat/Long: 41-45-48.0750N 091-09-10.5690W
41-45.801250N 091-09.176150W
41.7633542,-91.1529358
(estimated)
Elevation: 840 ft. / 256 m (estimated)
Variation: 02E (1985)
From city: 2 miles SW of TIPTON, IA
Time zone: UTC -5 (UTC -6 during Standard Time)
Zip code: 52772

Airport Operations

Airport use: Open to the public
Activation date: 08/1969
Control tower: no
ARTCC: CHICAGO CENTER
FSS: FORT DODGE FLIGHT SERVICE STATION
NOTAMs facility: FOD (NOTAM-D service available)
Attendance:  UNATNDD
Wind indicator: lighted
Segmented circle: no
Lights: SS-SR

Airport Communications

CTAF: 122.9
CEDAR RAPIDS APPROACH: 119.7 [0600-2130]
CEDAR RAPIDS DEPARTURE: 119.7 [0600-2130]
WX ASOS at IOW (19 nm SW): 128.075 (319-339-9491)
  • APCH/DEP SVC PRVDD BY CHICAGO ARTCC ON FREQS 132.8/328.4 (CEDAR RAPIDS RCAG) WHEN CEDAR RAPIDS APCH CTL CLSD.

Nearby radio navigation aids

VOR radial/distance  VOR name  Freq  Var
IOWr050/25.3IOWA CITY VOR/DME116.2005E
CIDr100/29.3CEDAR RAPIDS VOR/DME114.1005E
CVAr272/30.2DAVENPORT VORTAC113.8004E
MZVr314/35.2MOLINE VOR/DME114.4005E

Airport Services

Fuel available: 100LL
Parking: tiedowns
Airframe service: NONE
Powerplant service: NONE
Bottled oxygen: NONE
Bulk oxygen: NONE

Runway Information

Runway 11/29

Dimensions: 3000 x 60 ft. / 914 x 18 m
Surface: concrete, in fair condition
Runway edge lights: medium intensity
RUNWAY 11  RUNWAY 29
Latitude: 41-45.887167N41-45.715500N
Longitude: 091-09.485500W091-08.866833W
Elevation: 840.0 ft.840.0 ft.
Traffic pattern: leftleft
Runway heading: 108 magnetic, 110 true288 magnetic, 290 true
Markings: basic, in good conditionbasic, in good condition
Runway end identifier lights: yes
Touchdown point: yes, no lightsyes, no lights
Obstructions: 70 ft. trees, 3042 ft. from runway, 7 ft. right of centerline, 40:1 slope to clear20 ft. road, 450 ft. from runway, 150 ft. right of centerline, 12:1 slope to clear

Airport Ownership and Management from official FAA records

Ownership: Publicly-owned
Owner: CITY OF TIPTON
407 LYNN ST.
TIPTON, IA 52772
Phone 563-886-6187
BRIAN WAGNER - CITY ADMINISTRATOR.
Manager: MAX COPPESS
303 2ND AVENUE
STANWOOD, IA 52337
Phone 563-212-3308
OR 563-886-6187

Airport Operational Statistics

Aircraft based on the field: 16
Single engine airplanes: 15
Multi engine airplanes: 1
    
Aircraft operations: avg 38/week *
59% local general aviation
40% transient general aviation
1% military
* for 12-month period ending 20 July 2016

Additional Remarks

RY 29 IS CALM WIND RY.
DEER AND WATERFOWL ON AND INVOF OF ARPT.
FOR CD CTC CHICAGO ARTCC AT 630-906-8921.

Instrument Procedures

NOTE: All procedures below are presented as PDF files. If you need a reader for these files, you should download the free Adobe Reader.

NOT FOR NAVIGATION. Please procure official charts for flight.
FAA instrument procedures published for use from 12 September 2019 at 0901Z to 10 October 2019 at 0900Z.

 
IAPs - Instrument Approach Procedures
RNAV (GPS) RWY 11   download (153KB)
VOR RWY 11   download (164KB)
NOTE: Special Take-Off Minimums/Departure Procedures apply   download (158KB)

Other nearby airports with instrument procedures:

KIOW - Iowa City Municipal Airport (19 nm SW)
KMUT - Muscatine Municipal Airport (24 nm S)
KOQW - Maquoketa Municipal Airport (25 nm NE)
KCID - The Eastern Iowa Airport (26 nm W)
KDVN - Davenport Municipal Airport (27 nm E)
 
Loc | Ops | Rwys | IFR | FBO | Links
Com | Nav | Svcs | Stats | Notes
Area around 8C4 (Mathews Memorial Airport)
 
Road maps at: MapQuest Bing Google
 
Aerial photo
WARNING: Photo may not be current or correct
Aerial photo of 8C4 (Mathews Memorial Airport)
Photo taken 16-Jun-2010
looking east.

Do you have a better or more recent aerial photo of Mathews Memorial Airport that you would like to share? If so, please send us your photo.

 
Sectional chart

 
Airport distance calculator
Flying to Mathews Memorial Airport? Find the distance to fly.

From to 8C4

Sunrise and sunset
Times for 22-Sep-2019
 Local
(UTC-5)
 Zulu
(UTC)
Morning civil twilight06:2511:25
Sunrise06:5311:53
Sunset19:0200:02
Evening civil twilight19:2900:29

Current date and time
Zulu (UTC)  22-Sep-2019 11:24:58
Local (UTC-5)  22-Sep-2019 06:24:58
 
METAR
KIOW 
19nm SW 
221052Z AUTO 26006KT 10SM OVC007 21/20 A2987 RMK AO2 RAE19B34E48 SLP110 P0010 T02110200
KMUT 
24nm S 
221055Z AUTO 25009KT 10SM FEW008 FEW011 OVC031 22/21 A2987 RMK AO2
KCID 
26nm W 
221052Z 33011KT 3SM +RA BR FEW009 BKN037 OVC048 19/19 A2987 RMK AO2 SLP110 P0036 T01940189
KDVN 
27nm E 
221052Z AUTO 18009KT 10SM FEW008 OVC035 22/21 A2988 RMK AO2 RAE27 SLP110 P0002 T02220206
KMXO 
27nm N 
221055Z AUTO 30005KT 5SM -RA SCT008 BKN032 OVC055 21/21 A2985 RMK AO2 P0009
KMLI 
34nm SE 
221052Z 16008KT 10SM BKN037 OVC050 23/21 A2986 RMK AO2 RAE46 SLP109 P0014 T02280206
KCWI 
38nm E 
221056Z AUTO 19010KT 8SM RA OVC010 22/21 A2988 RMK AO2 CIG 007V014 SLP119 P0005 T02170211
KAWG 
38nm SW 
221055Z AUTO 27009KT 10SM BKN008 BKN012 OVC055 19/19 A2987 RMK AO2
TAF
KCID 
26nm W 
221010Z 2210/2306 20008KT 3SM RA BR BKN035 OVC060 FM221300 21008KT 2SM RA BR VCTS OVC020CB FM221800 28008KT 3SM RA BR OVC008 FM222100 31009KT 5SM SHRA OVC015 FM230000 32008KT P6SM OVC020
NOTAMs
Click for the latest NOTAMs
NOTAMs are issued by the DoD/FAA and will open in a separate window not controlled by AirNav.

 

 
 

FBO, Fuel Providers, and Aircraft Ground Support

  
 Business Name 
 
 Contact 
 
 Services / Description 
 
Fuel Prices
 
Comments
  
Mathews Memorial Airport 563-886-3559
no information available

If you are affiliated with Mathews Memorial Airport and would like to show here your services, contact info, web link, logo, and more, click here
100LL
SS $4.60 
 Updated 09-Sep-2019
 
   write
SS=Self service
Update Fuel Prices
 

Would you like to see your business listed on this page?

 If your business provides an interesting product or service to pilots, flight crews, aircraft, or users of the Mathews Memorial Airport, you should consider listing it here.  To start the listing process, click on the button below
 
Add a business
 

Other Pages about Mathews Memorial Airport

www.tiptoniowa.org/airport.htm
Page from the Iowa Airport Directory
 
Update a link
 
Copyright © AirNav, LLC. All rights reserved. Privacy Policy  Contact